Wetterdaten: Donnerstag, 14.05.2015
Datum Zeit Auen-Temp. Temp gefhlt Luftfeuchte Luftdruck Regen Wind Richtung Richtung Taupunkt Windben
14.05.2015 00:00 18,3 C 18,2 C 53 % 1011,2 hPa 0,0 mm 12,9 km/h (3 Bft) W-SW 247 8,6 C 11,1 km/h (2 Bft)
14.05.2015 00:05 18,4 C 18,3 C 51 % 1011,2 hPa 0,0 mm 12,9 km/h (3 Bft) W-SW 247 8,1 C 19,4 km/h (3 Bft)
14.05.2015 00:10 18,3 C 18,4 C 50 % 1011,2 hPa 0,0 mm 11,9 km/h (2 Bft) W-SW 247 7,7 C 34,7 km/h (5 Bft)
14.05.2015 00:15 18,0 C 18,2 C 51 % 1011,6 hPa 0,0 mm 8,0 km/h (2 Bft) W 270 7,7 C 4,7 km/h (1 Bft)
14.05.2015 00:20 17,9 C 17,9 C 51 % 1011,6 hPa 0,0 mm 6,2 km/h (2 Bft) SW 225 7,6 C 0,0 km/h (0 Bft)
14.05.2015 00:25 17,9 C 17,8 C 50 % 1011,6 hPa 0,0 mm 7,3 km/h (2 Bft) W-SW 247 7,3 C 7,8 km/h (2 Bft)
14.05.2015 00:30 17,6 C 17,6 C 52 % 1011,6 hPa 0,0 mm 6,5 km/h (2 Bft) W 270 7,6 C 7,3 km/h (2 Bft)
14.05.2015 00:35 17,9 C 17,8 C 52 % 1011,8 hPa 0,0 mm 6,7 km/h (2 Bft) W 270 7,9 C 8,3 km/h (2 Bft)
14.05.2015 00:40 17,6 C 17,6 C 53 % 1011,8 hPa 0,0 mm 6,7 km/h (2 Bft) SO 135 7,9 C 2,8 km/h (1 Bft)
14.05.2015 00:45 17,5 C 17,4 C 54 % 1011,8 hPa 0,0 mm 5,4 km/h (1 Bft) NW 315 8,1 C 6,0 km/h (2 Bft)
14.05.2015 00:50 17,9 C 17,7 C 54 % 1011,8 hPa 0,0 mm 6,5 km/h (2 Bft) W-SW 247 8,5 C 13,7 km/h (3 Bft)
14.05.2015 00:55 17,9 C 17,8 C 53 % 1012,0 hPa 0,0 mm 7,5 km/h (2 Bft) S 180 8,2 C 15,5 km/h (3 Bft)
14.05.2015 01:00 18,0 C 17,9 C 52 % 1012,0 hPa 0,0 mm 9,3 km/h (2 Bft) W 270 8,0 C 9,8 km/h (2 Bft)
14.05.2015 01:05 18,1 C 18,0 C 52 % 1012,0 hPa 0,0 mm 10,9 km/h (2 Bft) W-SW 247 8,1 C 12,4 km/h (3 Bft)
14.05.2015 01:10 18,0 C 18,0 C 52 % 1012,0 hPa 0,0 mm 9,8 km/h (2 Bft) W-SW 247 8,0 C 23,6 km/h (4 Bft)
14.05.2015 01:15 18,0 C 18,0 C 52 % 1011,9 hPa 0,0 mm 10,1 km/h (2 Bft) W-SW 247 8,0 C 16,3 km/h (3 Bft)
14.05.2015 01:20 16,5 C 16,8 C 59 % 1011,9 hPa 0,0 mm 10,9 km/h (2 Bft) W-SW 247 8,5 C 7,0 km/h (2 Bft)
14.05.2015 01:25 15,8 C 15,7 C 63 % 1011,9 hPa 0,0 mm 9,1 km/h (2 Bft) W-NW 292 8,8 C 8,3 km/h (2 Bft)
14.05.2015 01:30 15,1 C 14,9 C 69 % 1011,9 hPa 0,7 mm 6,7 km/h (2 Bft) S 180 9,5 C 6,2 km/h (2 Bft)
14.05.2015 01:35 15,0 C 14,6 C 71 % 1012,2 hPa 0,0 mm 6,5 km/h (2 Bft) W-NW 292 9,8 C 19,7 km/h (3 Bft)
14.05.2015 01:40 15,1 C 14,6 C 72 % 1012,2 hPa 0,0 mm 7,0 km/h (2 Bft) SW 225 10,1 C 6,0 km/h (2 Bft)
14.05.2015 01:45 14,9 C 14,4 C 73 % 1012,2 hPa 0,0 mm 6,2 km/h (2 Bft) W-SW 247 10,1 C 4,7 km/h (1 Bft)
14.05.2015 01:50 14,9 C 14,5 C 72 % 1012,2 hPa 0,0 mm 4,7 km/h (1 Bft) N-NO 22 9,9 C 4,4 km/h (1 Bft)
14.05.2015 01:55 14,8 C 14,4 C 73 % 1011,9 hPa 0,0 mm 4,1 km/h (1 Bft) W-SW 247 10,0 C 7,3 km/h (2 Bft)
14.05.2015 02:00 14,9 C 14,6 C 75 % 1011,9 hPa 0,0 mm 6,0 km/h (2 Bft) W 270 10,5 C 13,2 km/h (3 Bft)
14.05.2015 02:05 14,5 C 14,3 C 75 % 1011,9 hPa 0,0 mm 7,0 km/h (2 Bft) W 270 10,1 C 0,0 km/h (0 Bft)
14.05.2015 02:10 14,1 C 13,9 C 76 % 1011,9 hPa 0,0 mm 4,4 km/h (1 Bft) W-SW 247 9,9 C 6,2 km/h (2 Bft)
14.05.2015 02:15 14,2 C 14,0 C 77 % 1012,0 hPa 0,0 mm 2,8 km/h (1 Bft) W 270 10,2 C 9,3 km/h (2 Bft)
14.05.2015 02:20 14,3 C 14,0 C 78 % 1012,0 hPa 0,0 mm 4,4 km/h (1 Bft) S-SW 202 10,5 C 7,5 km/h (2 Bft)
14.05.2015 02:25 14,2 C 14,0 C 78 % 1012,0 hPa 0,0 mm 4,7 km/h (1 Bft) SW 225 10,4 C 7,5 km/h (2 Bft)
14.05.2015 02:30 14,1 C 13,9 C 78 % 1012,0 hPa 0,0 mm 4,7 km/h (1 Bft) W 270 10,3 C 15,3 km/h (3 Bft)
14.05.2015 02:35 13,9 C 13,7 C 78 % 1011,9 hPa 0,0 mm 3,1 km/h (1 Bft) W-NW 292 10,1 C 5,7 km/h (1 Bft)
14.05.2015 02:40 13,8 C 13,6 C 78 % 1011,9 hPa 0,0 mm 2,1 km/h (1 Bft) SW 225 10,0 C 4,4 km/h (1 Bft)
14.05.2015 02:45 13,7 C 13,5 C 78 % 1011,9 hPa 0,0 mm 1,8 km/h (1 Bft) W-SW 247 9,9 C 0,0 km/h (0 Bft)
14.05.2015 02:50 13,6 C 13,4 C 78 % 1011,9 hPa 0,0 mm 1,3 km/h (1 Bft) S-SW 202 9,8 C 5,7 km/h (1 Bft)
14.05.2015 02:55 13,8 C 13,5 C 78 % 1011,6 hPa 0,0 mm 2,3 km/h (1 Bft) W-SW 247 10,0 C 3,1 km/h (1 Bft)
14.05.2015 03:00 13,8 C 13,6 C 78 % 1011,6 hPa 0,0 mm 2,3 km/h (1 Bft) NW 315 10,0 C 0,0 km/h (0 Bft)
14.05.2015 03:05 13,7 C 13,5 C 77 % 1011,6 hPa 0,0 mm 1,3 km/h (1 Bft) SW 225 9,7 C 0,0 km/h (0 Bft)
14.05.2015 03:10 13,7 C 13,5 C 77 % 1011,6 hPa 0,0 mm 0,8 km/h (0 Bft) W-SW 247 9,7 C 0,0 km/h (0 Bft)
14.05.2015 03:15 13,8 C 13,6 C 78 % 1011,2 hPa 0,0 mm 0,8 km/h (0 Bft) S-SO 157 10,0 C 0,0 km/h (0 Bft)
14.05.2015 03:20 13,8 C 13,5 C 79 % 1011,2 hPa 0,0 mm 1,6 km/h (1 Bft) NW 315 10,2 C 10,9 km/h (2 Bft)
14.05.2015 03:25 13,7 C 13,4 C 80 % 1011,2 hPa 0,0 mm 4,7 km/h (1 Bft) W 270 10,3 C 28,2 km/h (4 Bft)
14.05.2015 03:30 13,8 C 13,3 C 80 % 1011,2 hPa 0,0 mm 9,8 km/h (2 Bft) W 270 10,4 C 31,1 km/h (5 Bft)
14.05.2015 03:35 13,9 C 13,3 C 78 % 1011,8 hPa 0,0 mm 13,2 km/h (3 Bft) NW 315 10,1 C 28,5 km/h (4 Bft)
14.05.2015 03:40 13,6 C 13,1 C 78 % 1011,8 hPa 0,0 mm 15,5 km/h (3 Bft) W-NW 292 9,8 C 31,1 km/h (5 Bft)
14.05.2015 03:45 13,4 C 12,8 C 79 % 1011,8 hPa 0,0 mm 17,1 km/h (3 Bft) W-SW 247 9,8 C 36,3 km/h (5 Bft)
14.05.2015 03:50 13,1 C 12,5 C 79 % 1011,8 hPa 0,7 mm 14,8 km/h (3 Bft) W 270 9,5 C 39,6 km/h (6 Bft)
14.05.2015 03:55 13,0 C 12,4 C 79 % 1011,9 hPa 0,0 mm 12,4 km/h (3 Bft) W-NW 292 9,4 C 15,5 km/h (3 Bft)
14.05.2015 04:00 12,8 C 12,4 C 79 % 1011,9 hPa 0,0 mm 8,3 km/h (2 Bft) S 180 9,2 C 7,3 km/h (2 Bft)
14.05.2015 04:05 12,6 C 12,2 C 79 % 1011,9 hPa 0,0 mm 6,2 km/h (2 Bft) W 270 9,1 C 6,0 km/h (2 Bft)
14.05.2015 04:10 12,5 C 12,2 C 79 % 1011,9 hPa 0,0 mm 4,7 km/h (1 Bft) SW 225 9,0 C 8,0 km/h (2 Bft)
14.05.2015 04:15 12,5 C 12,2 C 79 % 1011,9 hPa 0,0 mm 6,0 km/h (2 Bft) S 180 9,0 C 21,8 km/h (4 Bft)
14.05.2015 04:20 12,5 C 12,2 C 80 % 1011,9 hPa 0,0 mm 7,3 km/h (2 Bft) W 270 9,1 C 8,5 km/h (2 Bft)
14.05.2015 04:25 12,5 C 12,2 C 80 % 1011,9 hPa 0,0 mm 6,5 km/h (2 Bft) SW 225 9,1 C 6,0 km/h (2 Bft)
14.05.2015 04:30 12,3 C 12,0 C 80 % 1011,9 hPa 0,0 mm 4,7 km/h (1 Bft) W-SW 247 8,9 C 0,0 km/h (0 Bft)
14.05.2015 04:35 12,2 C 11,9 C 81 % 1012,1 hPa 0,0 mm 3,9 km/h (1 Bft) S-SW 202 9,0 C 4,1 km/h (1 Bft)
14.05.2015 04:40 12,2 C 11,9 C 81 % 1012,1 hPa 0,0 mm 4,1 km/h (1 Bft) SW 225 9,0 C 5,7 km/h (1 Bft)
14.05.2015 04:45 12,1 C 11,8 C 81 % 1012,1 hPa 0,0 mm 3,9 km/h (1 Bft) N-NO 22 8,9 C 0,0 km/h (0 Bft)
14.05.2015 04:50 12,1 C 11,8 C 82 % 1012,1 hPa 0,0 mm 2,8 km/h (1 Bft) W-NW 292 9,1 C 9,1 km/h (2 Bft)
14.05.2015 04:55 12,1 C 11,8 C 82 % 1012,2 hPa 0,0 mm 2,6 km/h (1 Bft) S 180 9,1 C 0,0 km/h (0 Bft)
14.05.2015 05:00 12,1 C 11,8 C 82 % 1012,2 hPa 0,0 mm 2,1 km/h (1 Bft) W-NW 292 9,1 C 0,0 km/h (0 Bft)
14.05.2015 05:05 12,1 C 11,8 C 82 % 1012,2 hPa 0,0 mm 1,0 km/h (0 Bft) NW 315 9,1 C 0,0 km/h (0 Bft)
14.05.2015 05:10 12,1 C 11,8 C 82 % 1012,2 hPa 0,0 mm 0,5 km/h (0 Bft) SW 225 9,1 C 0,0 km/h (0 Bft)
14.05.2015 05:15 12,1 C 11,8 C 83 % 1012,4 hPa 0,0 mm 1,0 km/h (0 Bft) S 180 9,3 C 5,2 km/h (1 Bft)
14.05.2015 05:20 12,1 C 11,8 C 82 % 1012,4 hPa 0,0 mm 2,1 km/h (1 Bft) W-SW 247 9,1 C 0,0 km/h (0 Bft)
14.05.2015 05:25 12,0 C 11,7 C 82 % 1012,4 hPa 0,0 mm 1,8 km/h (1 Bft) SW 225 9,0 C 3,4 km/h (1 Bft)
14.05.2015 05:30 12,0 C 11,7 C 83 % 1012,4 hPa 0,0 mm 2,3 km/h (1 Bft) W-SW 247 9,2 C 0,0 km/h (0 Bft)
14.05.2015 05:35 12,1 C 11,8 C 83 % 1012,4 hPa 0,0 mm 4,1 km/h (1 Bft) S 180 9,3 C 6,5 km/h (2 Bft)
14.05.2015 05:40 12,2 C 11,9 C 83 % 1012,4 hPa 0,0 mm 3,9 km/h (1 Bft) S 180 9,4 C 3,4 km/h (1 Bft)
14.05.2015 05:45 12,2 C 11,9 C 83 % 1012,4 hPa 0,0 mm 3,6 km/h (1 Bft) S-SW 202 9,4 C 8,0 km/h (2 Bft)
14.05.2015 05:50 12,3 C 12,0 C 83 % 1012,4 hPa 0,0 mm 1,8 km/h (1 Bft) W-SW 247 9,5 C 0,0 km/h (0 Bft)
14.05.2015 05:55 12,3 C 12,0 C 84 % 1012,8 hPa 0,0 mm 1,8 km/h (1 Bft) W-SW 247 9,7 C 0,0 km/h (0 Bft)
14.05.2015 06:00 12,3 C 12,0 C 84 % 1012,8 hPa 0,0 mm 3,1 km/h (1 Bft) NW 315 9,7 C 2,8 km/h (1 Bft)
14.05.2015 06:05 12,3 C 12,0 C 84 % 1012,8 hPa 0,0 mm 4,1 km/h (1 Bft) W 270 9,7 C 7,5 km/h (2 Bft)
14.05.2015 06:10 12,3 C 12,0 C 84 % 1012,8 hPa 0,0 mm 6,7 km/h (2 Bft) W 270 9,7 C 11,4 km/h (2 Bft)
14.05.2015 06:15 12,4 C 12,1 C 83 % 1013,1 hPa 0,0 mm 7,5 km/h (2 Bft) W-NW 292 9,6 C 12,4 km/h (3 Bft)
14.05.2015 06:20 12,2 C 11,8 C 83 % 1013,1 hPa 0,0 mm 8,5 km/h (2 Bft) W-SW 247 9,4 C 7,0 km/h (2 Bft)
14.05.2015 06:25 12,2 C 11,8 C 83 % 1013,1 hPa 0,0 mm 8,3 km/h (2 Bft) S 180 9,4 C 8,8 km/h (2 Bft)
14.05.2015 06:30 12,1 C 11,8 C 83 % 1013,1 hPa 0,0 mm 6,0 km/h (2 Bft) SW 225 9,3 C 3,4 km/h (1 Bft)
14.05.2015 06:35 12,1 C 11,8 C 83 % 1013,4 hPa 0,0 mm 5,4 km/h (1 Bft) W 270 9,3 C 7,8 km/h (2 Bft)
14.05.2015 06:40 11,8 C 11,3 C 82 % 1013,4 hPa 1,4 mm 9,8 km/h (2 Bft) NW 315 8,8 C 6,5 km/h (2 Bft)
14.05.2015 06:45 11,6 C 11,0 C 82 % 1013,4 hPa 0,0 mm 11,9 km/h (2 Bft) W-SW 247 8,6 C 9,3 km/h (2 Bft)
14.05.2015 06:50 11,4 C 11,0 C 83 % 1013,4 hPa 0,0 mm 7,8 km/h (2 Bft) SW 225 8,6 C 4,9 km/h (1 Bft)
14.05.2015 06:55 11,3 C 11,0 C 83 % 1013,1 hPa 0,0 mm 5,2 km/h (1 Bft) NW 315 8,5 C 6,7 km/h (2 Bft)
14.05.2015 07:00 11,4 C 11,1 C 83 % 1013,1 hPa 0,0 mm 4,7 km/h (1 Bft) W 270 8,6 C 7,5 km/h (2 Bft)
14.05.2015 07:05 11,4 C 11,1 C 83 % 1013,1 hPa 0,0 mm 4,7 km/h (1 Bft) S-SO 157 8,6 C 3,6 km/h (1 Bft)
14.05.2015 07:10 11,3 C 11,0 C 83 % 1013,1 hPa 0,0 mm 2,8 km/h (1 Bft) S 180 8,5 C 2,6 km/h (1 Bft)
14.05.2015 07:15 11,3 C 11,0 C 84 % 1013,3 hPa 0,7 mm 2,1 km/h (1 Bft) W-SW 247 8,7 C 5,2 km/h (1 Bft)
14.05.2015 07:20 11,1 C 10,9 C 85 % 1013,3 hPa 0,7 mm 3,4 km/h (1 Bft) W-SW 247 8,7 C 9,6 km/h (2 Bft)
14.05.2015 07:25 11,0 C 10,8 C 85 % 1013,3 hPa 0,7 mm 3,6 km/h (1 Bft) W 270 8,6 C 0,0 km/h (0 Bft)
14.05.2015 07:30 11,1 C 10,9 C 85 % 1013,3 hPa 0,0 mm 2,8 km/h (1 Bft) SW 225 8,7 C 5,7 km/h (1 Bft)
14.05.2015 07:35 11,1 C 10,9 C 86 % 1013,1 hPa 0,0 mm 3,4 km/h (1 Bft) S 180 8,8 C 9,3 km/h (2 Bft)
14.05.2015 07:40 11,2 C 11,0 C 86 % 1013,1 hPa 0,0 mm 6,5 km/h (2 Bft) W-SW 247 8,9 C 0,0 km/h (0 Bft)
14.05.2015 07:45 11,3 C 11,1 C 87 % 1013,1 hPa 0,0 mm 7,8 km/h (2 Bft) SW 225 9,2 C 7,0 km/h (2 Bft)
14.05.2015 07:50 11,3 C 11,1 C 86 % 1013,1 hPa 0,0 mm 5,4 km/h (1 Bft) W 270 9,0 C 7,8 km/h (2 Bft)
14.05.2015 07:55 11,4 C 11,2 C 87 % 1013,1 hPa 0,0 mm 4,4 km/h (1 Bft) S 180 9,3 C 7,0 km/h (2 Bft)
14.05.2015 08:00 11,5 C 11,4 C 83 % 1013,1 hPa 0,0 mm 3,6 km/h (1 Bft) N-NO 22 8,7 C 3,9 km/h (1 Bft)
14.05.2015 08:05 11,5 C 11,5 C 83 % 1013,1 hPa 0,0 mm 3,4 km/h (1 Bft) S 180 8,7 C 4,7 km/h (1 Bft)
14.05.2015 08:10 11,6 C 11,5 C 83 % 1013,1 hPa 0,0 mm 3,4 km/h (1 Bft) W-SW 247 8,8 C 0,0 km/h (0 Bft)
14.05.2015 08:15 11,7 C 11,7 C 83 % 1012,9 hPa 0,0 mm 2,1 km/h (1 Bft) W 270 8,9 C 0,0 km/h (0 Bft)
14.05.2015 08:20 11,8 C 11,9 C 83 % 1012,9 hPa 0,0 mm 2,3 km/h (1 Bft) W 270 9,0 C 6,7 km/h (2 Bft)
14.05.2015 08:25 12,0 C 12,1 C 83 % 1012,9 hPa 0,0 mm 3,1 km/h (1 Bft) W-SW 247 9,2 C 7,3 km/h (2 Bft)
14.05.2015 08:30 12,4 C 12,8 C 83 % 1012,9 hPa 0,0 mm 3,4 km/h (1 Bft) S 180 9,6 C 2,6 km/h (1 Bft)
14.05.2015 08:35 13,0 C 14,2 C 82 % 1012,8 hPa 0,0 mm 3,6 km/h (1 Bft) NW 315 10,0 C 8,5 km/h (2 Bft)
14.05.2015 08:40 13,2 C 14,8 C 82 % 1012,8 hPa 0,0 mm 5,4 km/h (1 Bft) W-NW 292 10,2 C 6,0 km/h (2 Bft)
14.05.2015 08:45 13,1 C 14,2 C 81 % 1012,8 hPa 0,0 mm 5,4 km/h (1 Bft) W 270 9,9 C 0,0 km/h (0 Bft)
14.05.2015 08:50 13,0 C 13,7 C 81 % 1012,8 hPa 0,0 mm 3,6 km/h (1 Bft) S-SW 202 9,8 C 2,6 km/h (1 Bft)
14.05.2015 08:55 13,1 C 13,5 C 81 % 1012,7 hPa 0,0 mm 3,1 km/h (1 Bft) W-SW 247 9,9 C 3,4 km/h (1 Bft)
14.05.2015 09:00 13,3 C 13,7 C 81 % 1012,7 hPa 0,0 mm 2,6 km/h (1 Bft) W 270 10,1 C 7,3 km/h (2 Bft)
14.05.2015 09:05 13,4 C 14,0 C 81 % 1012,7 hPa 0,0 mm 3,4 km/h (1 Bft) W-SW 247 10,2 C 0,0 km/h (0 Bft)
14.05.2015 09:10 13,6 C 14,2 C 81 % 1012,7 hPa 0,0 mm 3,4 km/h (1 Bft) W-SW 247 10,4 C 4,9 km/h (1 Bft)
14.05.2015 09:15 13,6 C 14,1 C 81 % 1013,1 hPa 0,0 mm 4,7 km/h (1 Bft) W 270 10,4 C 8,5 km/h (2 Bft)
14.05.2015 09:20 13,4 C 13,4 C 83 % 1013,1 hPa 0,7 mm 7,8 km/h (2 Bft) W-SW 247 10,6 C 25,1 km/h (4 Bft)
14.05.2015 09:25 13,1 C 13,0 C 84 % 1013,1 hPa 0,0 mm 8,8 km/h (2 Bft) N-NW 337 10,5 C 10,4 km/h (2 Bft)
14.05.2015 09:30 12,7 C 12,4 C 85 % 1013,1 hPa 0,7 mm 11,4 km/h (2 Bft) W 270 10,2 C 5,2 km/h (1 Bft)
14.05.2015 09:35 12,5 C 12,3 C 85 % 1013,0 hPa 0,0 mm 10,1 km/h (2 Bft) S-SW 202 10,0 C 9,6 km/h (2 Bft)
14.05.2015 09:40 12,4 C 12,2 C 85 % 1013,0 hPa 0,0 mm 4,7 km/h (1 Bft) W-SW 247 9,9 C 3,9 km/h (1 Bft)
14.05.2015 09:45 12,5 C 12,3 C 85 % 1013,0 hPa 0,0 mm 3,6 km/h (1 Bft) W 270 10,0 C 9,1 km/h (2 Bft)
14.05.2015 09:50 12,7 C 12,7 C 82 % 1013,0 hPa 0,0 mm 4,7 km/h (1 Bft) W-NW 292 9,7 C 6,2 km/h (2 Bft)
14.05.2015 09:55 12,9 C 13,0 C 82 % 1013,1 hPa 0,0 mm 5,7 km/h (1 Bft) W 270 9,9 C 6,0 km/h (2 Bft)
14.05.2015 10:00 13,5 C 14,6 C 81 % 1013,1 hPa 0,0 mm 6,7 km/h (2 Bft) W-SW 247 10,3 C 13,2 km/h (3 Bft)
14.05.2015 10:05 13,7 C 15,6 C 81 % 1013,1 hPa 0,0 mm 8,3 km/h (2 Bft) W 270 10,5 C 17,1 km/h (3 Bft)
14.05.2015 10:10 13,5 C 15,1 C 81 % 1013,1 hPa 0,0 mm 7,3 km/h (2 Bft) N-NW 337 10,3 C 5,2 km/h (1 Bft)
14.05.2015 10:15 13,4 C 15,0 C 81 % 1013,1 hPa 0,0 mm 6,7 km/h (2 Bft) NW 315 10,2 C 18,1 km/h (3 Bft)
14.05.2015 10:20 13,3 C 14,6 C 80 % 1013,1 hPa 0,0 mm 9,1 km/h (2 Bft) W-SW 247 9,9 C 11,1 km/h (2 Bft)
14.05.2015 10:25 13,3 C 14,6 C 80 % 1013,1 hPa 0,0 mm 9,8 km/h (2 Bft) W-SW 247 9,9 C 6,0 km/h (2 Bft)
14.05.2015 10:30 14,3 C 17,0 C 80 % 1013,1 hPa 0,0 mm 9,3 km/h (2 Bft) W 270 10,9 C 22,0 km/h (4 Bft)
14.05.2015 10:35 14,6 C 18,0 C 80 % 1013,0 hPa 0,0 mm 11,1 km/h (2 Bft) W 270 11,2 C 21,8 km/h (4 Bft)
14.05.2015 10:40 14,5 C 18,0 C 78 % 1013,0 hPa 0,0 mm 13,2 km/h (3 Bft) SW 225 10,7 C 27,7 km/h (4 Bft)
14.05.2015 10:45 14,5 C 18,3 C 77 % 1013,0 hPa 0,0 mm 11,4 km/h (2 Bft) W 270 10,5 C 12,4 km/h (3 Bft)
14.05.2015 10:50 14,9 C 18,6 C 77 % 1013,0 hPa 0,0 mm 11,4 km/h (2 Bft) NW 315 10,9 C 17,6 km/h (3 Bft)
14.05.2015 10:55 15,0 C 18,3 C 76 % 1013,1 hPa 0,0 mm 12,4 km/h (3 Bft) NW 315 10,8 C 14,8 km/h (3 Bft)
14.05.2015 11:00 15,6 C 19,4 C 76 % 1013,1 hPa 0,0 mm 14,2 km/h (3 Bft) W-NW 292 11,4 C 10,9 km/h (2 Bft)
14.05.2015 11:05 15,9 C 20,2 C 76 % 1013,1 hPa 0,0 mm 13,5 km/h (3 Bft) S-SW 202 11,7 C 13,2 km/h (3 Bft)
14.05.2015 11:10 16,1 C 20,9 C 74 % 1013,1 hPa 0,0 mm 10,6 km/h (2 Bft) W 270 11,5 C 16,6 km/h (3 Bft)
14.05.2015 11:15 16,0 C 20,7 C 73 % 1013,2 hPa 0,0 mm 11,4 km/h (2 Bft) W 270 11,2 C 18,9 km/h (3 Bft)
14.05.2015 11:20 15,9 C 20,5 C 74 % 1013,2 hPa 0,0 mm 12,2 km/h (2 Bft) SW 225 11,3 C 14,5 km/h (3 Bft)
14.05.2015 11:25 15,6 C 19,7 C 73 % 1013,2 hPa 0,0 mm 11,9 km/h (2 Bft) W-SW 247 10,8 C 3,9 km/h (1 Bft)
14.05.2015 11:30 15,5 C 18,7 C 74 % 1013,2 hPa 0,0 mm 10,9 km/h (2 Bft) S-SO 157 10,9 C 8,8 km/h (2 Bft)
14.05.2015 11:35 15,5 C 18,1 C 74 % 1013,8 hPa 0,0 mm 9,6 km/h (2 Bft) NW 315 10,9 C 12,2 km/h (2 Bft)
14.05.2015 11:40 15,4 C 18,3 C 74 % 1013,8 hPa 0,0 mm 10,6 km/h (2 Bft) NW 315 10,8 C 17,3 km/h (3 Bft)
14.05.2015 11:45 15,3 C 17,9 C 74 % 1013,8 hPa 0,0 mm 11,7 km/h (2 Bft) W 270 10,7 C 11,1 km/h (2 Bft)
14.05.2015 11:50 15,0 C 17,3 C 74 % 1013,8 hPa 0,0 mm 10,4 km/h (2 Bft) W-SW 247 10,4 C 17,6 km/h (3 Bft)
14.05.2015 11:55 15,1 C 17,5 C 75 % 1013,8 hPa 0,0 mm 9,1 km/h (2 Bft) W-NW 292 10,7 C 12,4 km/h (3 Bft)
14.05.2015 12:00 15,2 C 17,3 C 75 % 1013,8 hPa 0,0 mm 11,9 km/h (2 Bft) W-NW 292 10,8 C 11,9 km/h (2 Bft)
14.05.2015 12:05 15,3 C 17,5 C 75 % 1013,8 hPa 0,0 mm 12,7 km/h (3 Bft) W 270 10,9 C 10,6 km/h (2 Bft)
14.05.2015 12:10 15,0 C 17,2 C 75 % 1013,8 hPa 0,0 mm 14,2 km/h (3 Bft) NW 315 10,6 C 27,4 km/h (4 Bft)
14.05.2015 12:15 14,8 C 16,8 C 75 % 1013,6 hPa 0,0 mm 14,0 km/h (3 Bft) NW 315 10,4 C 22,0 km/h (4 Bft)
14.05.2015 12:20 15,1 C 17,3 C 75 % 1013,6 hPa 0,0 mm 10,6 km/h (2 Bft) NW 315 10,7 C 8,8 km/h (2 Bft)
14.05.2015 12:25 15,0 C 17,3 C 75 % 1013,6 hPa 0,0 mm 10,6 km/h (2 Bft) W-NW 292 10,6 C 23,0 km/h (4 Bft)
14.05.2015 12:30 14,8 C 16,5 C 76 % 1013,6 hPa 0,0 mm 11,4 km/h (2 Bft) N-NW 337 10,6 C 18,6 km/h (3 Bft)
14.05.2015 12:35 14,6 C 16,1 C 76 % 1013,4 hPa 0,0 mm 11,4 km/h (2 Bft) W-NW 292 10,4 C 11,9 km/h (2 Bft)
14.05.2015 12:40 14,8 C 16,9 C 76 % 1013,4 hPa 0,0 mm 10,4 km/h (2 Bft) W-SW 247 10,6 C 15,0 km/h (3 Bft)
14.05.2015 12:45 15,0 C 17,3 C 75 % 1013,4 hPa 0,0 mm 9,6 km/h (2 Bft) W 270 10,6 C 6,2 km/h (2 Bft)
14.05.2015 12:50 15,9 C 19,6 C 75 % 1013,4 hPa 0,0 mm 8,8 km/h (2 Bft) N-NW 337 11,5 C 20,7 km/h (4 Bft)
14.05.2015 12:55 16,3 C 20,7 C 73 % 1013,1 hPa 0,0 mm 7,8 km/h (2 Bft) W-NW 292 11,4 C 7,5 km/h (2 Bft)
14.05.2015 13:00 16,1 C 19,9 C 73 % 1013,1 hPa 0,0 mm 8,8 km/h (2 Bft) NO 45 11,3 C 7,0 km/h (2 Bft)
14.05.2015 13:05 16,1 C 19,7 C 73 % 1013,1 hPa 0,0 mm 9,3 km/h (2 Bft) N-NO 22 11,3 C 7,8 km/h (2 Bft)
14.05.2015 13:10 15,7 C 18,5 C 73 % 1013,1 hPa 0,0 mm 9,8 km/h (2 Bft) N 360 10,9 C 17,1 km/h (3 Bft)
14.05.2015 13:15 15,6 C 18,3 C 73 % 1013,2 hPa 0,0 mm 10,6 km/h (2 Bft) N-NW 337 10,8 C 12,2 km/h (2 Bft)
14.05.2015 13:20 15,4 C 17,6 C 72 % 1013,2 hPa 0,0 mm 9,3 km/h (2 Bft) N 360 10,4 C 9,3 km/h (2 Bft)
14.05.2015 13:25 15,9 C 18,1 C 72 % 1013,2 hPa 0,0 mm 8,3 km/h (2 Bft) N-NO 22 10,9 C 7,0 km/h (2 Bft)
14.05.2015 13:30 16,6 C 19,6 C 70 % 1013,2 hPa 0,0 mm 7,0 km/h (2 Bft) N-NO 22 11,1 C 6,5 km/h (2 Bft)
14.05.2015 13:35 16,6 C 20,1 C 70 % 1013,1 hPa 0,0 mm 6,2 km/h (2 Bft) NO 45 11,1 C 4,4 km/h (1 Bft)
14.05.2015 13:40 15,8 C 19,1 C 70 % 1013,1 hPa 0,0 mm 7,0 km/h (2 Bft) NW 315 10,3 C 12,2 km/h (2 Bft)
14.05.2015 13:45 15,8 C 19,0 C 70 % 1013,1 hPa 0,0 mm 5,7 km/h (1 Bft) O-NO 67 10,3 C 5,4 km/h (1 Bft)
14.05.2015 13:50 15,6 C 18,8 C 69 % 1013,1 hPa 0,0 mm 6,0 km/h (2 Bft) O-NO 67 9,9 C 8,8 km/h (2 Bft)
14.05.2015 13:55 15,6 C 18,3 C 69 % 1013,0 hPa 0,0 mm 6,5 km/h (2 Bft) NO 45 9,9 C 12,7 km/h (3 Bft)
14.05.2015 14:00 15,8 C 19,2 C 69 % 1013,0 hPa 0,0 mm 7,5 km/h (2 Bft) N-NO 22 10,1 C 3,1 km/h (1 Bft)
14.05.2015 14:05 15,8 C 19,2 C 69 % 1013,0 hPa 0,0 mm 8,0 km/h (2 Bft) N-NO 22 10,1 C 7,8 km/h (2 Bft)
14.05.2015 14:10 15,9 C 19,3 C 69 % 1013,0 hPa 0,0 mm 6,2 km/h (2 Bft) NO 45 10,2 C 7,8 km/h (2 Bft)
14.05.2015 14:15 15,9 C 19,3 C 69 % 1013,0 hPa 0,0 mm 5,2 km/h (1 Bft) NW 315 10,2 C 2,8 km/h (1 Bft)
14.05.2015 14:20 16,3 C 19,1 C 69 % 1013,0 hPa 0,0 mm 5,2 km/h (1 Bft) NW 315 10,6 C 11,7 km/h (2 Bft)
14.05.2015 14:25 16,5 C 19,3 C 68 % 1013,0 hPa 0,0 mm 6,7 km/h (2 Bft) W-NW 292 10,6 C 9,1 km/h (2 Bft)
14.05.2015 14:30 16,5 C 18,7 C 68 % 1013,0 hPa 0,0 mm 6,7 km/h (2 Bft) N-NO 22 10,6 C 10,9 km/h (2 Bft)
14.05.2015 14:35 16,1 C 18,1 C 68 % 1012,7 hPa 0,0 mm 6,0 km/h (2 Bft) W-NW 292 10,2 C 7,3 km/h (2 Bft)
14.05.2015 14:40 15,7 C 17,2 C 69 % 1012,7 hPa 0,0 mm 8,3 km/h (2 Bft) O-NO 67 10,0 C 13,5 km/h (3 Bft)
14.05.2015 14:45 15,7 C 17,1 C 69 % 1012,7 hPa 0,0 mm 8,0 km/h (2 Bft) O-NO 67 10,0 C 5,4 km/h (1 Bft)
14.05.2015 14:50 15,8 C 17,8 C 69 % 1012,7 hPa 0,0 mm 5,4 km/h (1 Bft) O-NO 67 10,1 C 12,9 km/h (3 Bft)
14.05.2015 14:55 15,8 C 18,0 C 69 % 1012,6 hPa 0,0 mm 3,9 km/h (1 Bft) NO 45 10,1 C 4,4 km/h (1 Bft)
14.05.2015 15:00 15,8 C 17,9 C 69 % 1012,6 hPa 0,0 mm 4,7 km/h (1 Bft) N-NO 22 10,1 C 7,5 km/h (2 Bft)
14.05.2015 15:05 15,8 C 17,7 C 69 % 1012,6 hPa 0,0 mm 4,9 km/h (1 Bft) N-NO 22 10,1 C 9,8 km/h (2 Bft)
14.05.2015 15:10 15,7 C 17,4 C 69 % 1012,6 hPa 0,0 mm 5,7 km/h (1 Bft) O 90 10,0 C 8,5 km/h (2 Bft)
14.05.2015 15:15 15,7 C 17,4 C 70 % 1012,4 hPa 0,0 mm 5,2 km/h (1 Bft) NO 45 10,2 C 9,8 km/h (2 Bft)
14.05.2015 15:20 15,8 C 17,8 C 70 % 1012,4 hPa 0,0 mm 5,4 km/h (1 Bft) O-NO 67 10,3 C 6,0 km/h (2 Bft)
14.05.2015 15:25 15,9 C 18,2 C 70 % 1012,4 hPa 0,0 mm 5,2 km/h (1 Bft) N-NO 22 10,4 C 7,0 km/h (2 Bft)
14.05.2015 15:30 15,9 C 18,5 C 71 % 1012,4 hPa 0,0 mm 4,7 km/h (1 Bft) O-NO 67 10,6 C 6,2 km/h (2 Bft)
14.05.2015 15:35 15,8 C 18,3 C 71 % 1012,2 hPa 0,0 mm 4,9 km/h (1 Bft) NO 45 10,6 C 12,4 km/h (3 Bft)
14.05.2015 15:40 16,0 C 18,5 C 70 % 1012,2 hPa 0,0 mm 4,9 km/h (1 Bft) O-NO 67 10,5 C 9,8 km/h (2 Bft)
14.05.2015 15:45 16,1 C 18,8 C 70 % 1012,2 hPa 0,0 mm 5,4 km/h (1 Bft) O 90 10,6 C 6,7 km/h (2 Bft)
14.05.2015 15:50 16,3 C 19,2 C 70 % 1012,2 hPa 0,0 mm 4,4 km/h (1 Bft) NO 45 10,8 C 8,3 km/h (2 Bft)
14.05.2015 15:55 16,2 C 19,1 C 70 % 1011,9 hPa 0,0 mm 3,6 km/h (1 Bft) O-NO 67 10,7 C 4,7 km/h (1 Bft)
14.05.2015 16:00 16,2 C 19,1 C 70 % 1011,9 hPa 0,0 mm 4,4 km/h (1 Bft) O-SO 112 10,7 C 0,0 km/h (0 Bft)
14.05.2015 16:05 16,2 C 19,1 C 70 % 1011,9 hPa 0,0 mm 3,6 km/h (1 Bft) S-SW 202 10,7 C 0,0 km/h (0 Bft)
14.05.2015 16:10 16,2 C 18,9 C 69 % 1011,9 hPa 0,0 mm 2,6 km/h (1 Bft) NO 45 10,5 C 4,4 km/h (1 Bft)
14.05.2015 16:15 16,3 C 18,8 C 69 % 1011,9 hPa 0,0 mm 3,9 km/h (1 Bft) O-NO 67 10,6 C 3,9 km/h (1 Bft)
14.05.2015 16:20 16,6 C 19,5 C 69 % 1011,9 hPa 0,0 mm 4,4 km/h (1 Bft) N-NO 22 10,9 C 3,6 km/h (1 Bft)
14.05.2015 16:25 16,7 C 20,1 C 69 % 1011,9 hPa 0,0 mm 3,6 km/h (1 Bft) N-NO 22 11,0 C 6,7 km/h (2 Bft)
14.05.2015 16:30 16,8 C 19,9 C 68 % 1011,9 hPa 0,0 mm 4,7 km/h (1 Bft) NO 45 10,9 C 12,2 km/h (2 Bft)
14.05.2015 16:35 16,7 C 19,3 C 67 % 1011,9 hPa 0,0 mm 6,7 km/h (2 Bft) N-NO 22 10,5 C 12,7 km/h (3 Bft)
14.05.2015 16:40 16,7 C 18,8 C 67 % 1011,9 hPa 0,0 mm 6,5 km/h (2 Bft) NO 45 10,5 C 4,7 km/h (1 Bft)
14.05.2015 16:45 16,7 C 18,7 C 66 % 1011,9 hPa 0,0 mm 5,7 km/h (1 Bft) NO 45 10,3 C 8,8 km/h (2 Bft)
14.05.2015 16:50 16,8 C 18,8 C 67 % 1011,9 hPa 0,0 mm 4,7 km/h (1 Bft) NO 45 10,6 C 0,0 km/h (0 Bft)
14.05.2015 16:55 17,0 C 19,1 C 66 % 1011,5 hPa 0,0 mm 4,4 km/h (1 Bft) NW 315 10,6 C 4,7 km/h (1 Bft)
14.05.2015 17:00 17,0 C 19,3 C 65 % 1011,5 hPa 0,0 mm 1,6 km/h (1 Bft) NW 315 10,4 C 2,6 km/h (1 Bft)
14.05.2015 17:05 17,0 C 19,4 C 66 % 1011,5 hPa 0,0 mm 1,6 km/h (1 Bft) N-NW 337 10,6 C 0,0 km/h (0 Bft)
14.05.2015 17:10 16,9 C 19,1 C 65 % 1011,5 hPa 0,0 mm 2,3 km/h (1 Bft) NO 45 10,3 C 4,7 km/h (1 Bft)
14.05.2015 17:15 16,8 C 18,8 C 66 % 1011,5 hPa 0,0 mm 1,8 km/h (1 Bft) NO 45 10,4 C 0,0 km/h (0 Bft)
14.05.2015 17:20 16,8 C 18,8 C 66 % 1011,5 hPa 0,0 mm 1,3 km/h (1 Bft) NW 315 10,4 C 3,6 km/h (1 Bft)
14.05.2015 17:25 16,9 C 18,6 C 66 % 1011,5 hPa 0,0 mm 2,1 km/h (1 Bft) NW 315 10,5 C 6,2 km/h (2 Bft)
14.05.2015 17:30 16,7 C 18,2 C 67 % 1011,5 hPa 0,0 mm 4,7 km/h (1 Bft) O-NO 67 10,5 C 8,3 km/h (2 Bft)
14.05.2015 17:35 16,5 C 17,9 C 68 % 1011,3 hPa 0,0 mm 4,9 km/h (1 Bft) N-NO 22 10,6 C 8,3 km/h (2 Bft)
14.05.2015 17:40 16,4 C 17,5 C 68 % 1011,3 hPa 0,0 mm 5,4 km/h (1 Bft) O-NO 67 10,5 C 6,0 km/h (2 Bft)
14.05.2015 17:45 16,3 C 17,3 C 69 % 1011,3 hPa 0,0 mm 5,7 km/h (1 Bft) O-NO 67 10,6 C 6,2 km/h (2 Bft)
14.05.2015 17:50 16,2 C 17,1 C 69 % 1011,3 hPa 0,0 mm 4,7 km/h (1 Bft) N-NO 22 10,5 C 3,4 km/h (1 Bft)
14.05.2015 17:55 16,3 C 17,3 C 69 % 1011,4 hPa 0,0 mm 3,9 km/h (1 Bft) NO 45 10,6 C 6,2 km/h (2 Bft)
14.05.2015 18:00 16,3 C 17,4 C 70 % 1011,4 hPa 0,0 mm 4,7 km/h (1 Bft) NO 45 10,8 C 5,2 km/h (1 Bft)
14.05.2015 18:05 16,2 C 17,3 C 70 % 1011,4 hPa 0,0 mm 4,4 km/h (1 Bft) O 90 10,7 C 7,8 km/h (2 Bft)
14.05.2015 18:10 16,1 C 17,4 C 69 % 1011,4 hPa 0,0 mm 3,4 km/h (1 Bft) O-NO 67 10,4 C 3,1 km/h (1 Bft)
14.05.2015 18:15 16,1 C 17,5 C 69 % 1011,3 hPa 0,0 mm 2,8 km/h (1 Bft) O-NO 67 10,4 C 0,0 km/h (0 Bft)
14.05.2015 18:20 16,1 C 17,4 C 69 % 1011,3 hPa 0,0 mm 3,4 km/h (1 Bft) N-NO 22 10,4 C 6,2 km/h (2 Bft)
14.05.2015 18:25 16,1 C 17,1 C 69 % 1011,3 hPa 0,0 mm 4,1 km/h (1 Bft) NO 45 10,4 C 8,3 km/h (2 Bft)
14.05.2015 18:30 16,0 C 16,9 C 69 % 1011,3 hPa 0,0 mm 5,7 km/h (1 Bft) O-NO 67 10,3 C 7,3 km/h (2 Bft)
14.05.2015 18:35 15,9 C 16,7 C 69 % 1011,3 hPa 0,0 mm 6,0 km/h (2 Bft) O-SO 112 10,2 C 0,0 km/h (0 Bft)
14.05.2015 18:40 15,8 C 16,5 C 70 % 1011,3 hPa 0,0 mm 3,1 km/h (1 Bft) NO 45 10,3 C 6,0 km/h (2 Bft)
14.05.2015 18:45 15,8 C 16,3 C 70 % 1011,3 hPa 0,0 mm 2,3 km/h (1 Bft) O-NO 67 10,3 C 2,8 km/h (1 Bft)
14.05.2015 18:50 15,7 C 16,2 C 70 % 1011,3 hPa 0,0 mm 2,6 km/h (1 Bft) O 90 10,2 C 2,8 km/h (1 Bft)
14.05.2015 18:55 15,6 C 16,1 C 71 % 1011,3 hPa 0,0 mm 1,8 km/h (1 Bft) NO 45 10,4 C 3,6 km/h (1 Bft)
14.05.2015 19:00 15,6 C 16,1 C 71 % 1011,3 hPa 0,0 mm 2,3 km/h (1 Bft) N-NO 22 10,4 C 4,1 km/h (1 Bft)
14.05.2015 19:05 15,5 C 16,0 C 71 % 1011,3 hPa 0,0 mm 2,8 km/h (1 Bft) O-NO 67 10,3 C 6,0 km/h (2 Bft)
14.05.2015 19:10 15,3 C 15,7 C 70 % 1011,3 hPa 0,0 mm 4,1 km/h (1 Bft) O-NO 67 9,9 C 6,2 km/h (2 Bft)
14.05.2015 19:15 15,2 C 15,4 C 70 % 1011,2 hPa 0,0 mm 3,9 km/h (1 Bft) O-NO 67 9,8 C 0,0 km/h (0 Bft)
14.05.2015 19:20 14,9 C 15,1 C 71 % 1011,2 hPa 0,0 mm 1,6 km/h (1 Bft) O-SO 112 9,7 C 0,0 km/h (0 Bft)
14.05.2015 19:25 14,9 C 15,0 C 72 % 1011,2 hPa 0,0 mm 0,3 km/h (0 Bft) O-SO 112 9,9 C 0,0 km/h (0 Bft)
14.05.2015 19:30 14,6 C 14,8 C 72 % 1011,2 hPa 0,0 mm 0,0 km/h (0 Bft) O-NO 67 9,6 C 0,0 km/h (0 Bft)
14.05.2015 19:35 14,6 C 14,7 C 73 % 1011,1 hPa 0,0 mm 0,0 km/h (0 Bft) O-NO 67 9,8 C 0,0 km/h (0 Bft)
14.05.2015 19:40 14,5 C 14,6 C 73 % 1011,1 hPa 0,0 mm 0,0 km/h (0 Bft) O 90 9,7 C 0,0 km/h (0 Bft)
14.05.2015 19:45 14,5 C 14,6 C 73 % 1011,1 hPa 0,0 mm 0,3 km/h (0 Bft) O-SO 112 9,7 C 0,0 km/h (0 Bft)
14.05.2015 19:50 14,3 C 14,4 C 73 % 1011,1 hPa 0,0 mm 0,5 km/h (0 Bft) O 90 9,5 C 0,0 km/h (0 Bft)
14.05.2015 19:55 14,3 C 14,3 C 73 % 1010,9 hPa 0,0 mm 0,3 km/h (0 Bft) O-NO 67 9,5 C 0,0 km/h (0 Bft)
14.05.2015 20:00 14,0 C 14,0 C 73 % 1010,9 hPa 0,0 mm 0,0 km/h (0 Bft) SO 135 9,2 C 0,0 km/h (0 Bft)
14.05.2015 20:05 13,8 C 13,8 C 74 % 1010,9 hPa 0,0 mm 0,0 km/h (0 Bft) SO 135 9,2 C 0,0 km/h (0 Bft)
14.05.2015 20:10 13,5 C 13,5 C 75 % 1010,9 hPa 0,0 mm 0,0 km/h (0 Bft) O 90 9,2 C 0,0 km/h (0 Bft)
14.05.2015 20:15 13,4 C 13,4 C 75 % 1010,8 hPa 0,0 mm 0,3 km/h (0 Bft) O-NO 67 9,1 C 2,8 km/h (1 Bft)
14.05.2015 20:20 13,2 C 13,1 C 77 % 1010,8 hPa 0,0 mm 0,3 km/h (0 Bft) O-NO 67 9,3 C 0,0 km/h (0 Bft)
14.05.2015 20:25 13,0 C 12,9 C 77 % 1010,8 hPa 0,0 mm 0,3 km/h (0 Bft) O 90 9,1 C 0,0 km/h (0 Bft)
14.05.2015 20:30 12,7 C 12,6 C 77 % 1010,8 hPa 0,0 mm 0,0 km/h (0 Bft) O 90 8,8 C 0,0 km/h (0 Bft)
14.05.2015 20:35 12,6 C 12,5 C 78 % 1010,9 hPa 0,0 mm 0,0 km/h (0 Bft) O 90 8,9 C 0,0 km/h (0 Bft)
14.05.2015 20:40 12,5 C 12,3 C 78 % 1010,9 hPa 0,0 mm 0,0 km/h (0 Bft) O 90 8,8 C 0,0 km/h (0 Bft)
14.05.2015 20:45 12,4 C 12,2 C 79 % 1010,9 hPa 0,0 mm 0,3 km/h (0 Bft) O-NO 67 8,9 C 0,0 km/h (0 Bft)
14.05.2015 20:50 12,3 C 12,1 C 79 % 1010,9 hPa 0,0 mm 0,3 km/h (0 Bft) O-NO 67 8,8 C 0,0 km/h (0 Bft)
14.05.2015 20:55 12,2 C 12,0 C 79 % 1010,4 hPa 0,0 mm 0,0 km/h (0 Bft) SO 135 8,7 C 0,0 km/h (0 Bft)
14.05.2015 21:00 12,0 C 11,8 C 80 % 1010,4 hPa 0,0 mm 0,0 km/h (0 Bft) S-SO 157 8,7 C 0,0 km/h (0 Bft)
14.05.2015 21:05 12,0 C 11,8 C 79 % 1010,4 hPa 0,0 mm 0,0 km/h (0 Bft) S-SO 157 8,5 C 0,0 km/h (0 Bft)
14.05.2015 21:10 12,0 C 11,8 C 79 % 1010,4 hPa 0,0 mm 0,0 km/h (0 Bft) O-SO 112 8,5 C 0,0 km/h (0 Bft)
14.05.2015 21:15 11,9 C 11,8 C 79 % 1010,3 hPa 0,0 mm 0,0 km/h (0 Bft) O-SO 112 8,4 C 0,0 km/h (0 Bft)
14.05.2015 21:20 11,9 C 11,7 C 79 % 1010,3 hPa 0,0 mm 0,0 km/h (0 Bft) O-SO 112 8,4 C 0,0 km/h (0 Bft)
14.05.2015 21:25 11,9 C 11,7 C 79 % 1010,3 hPa 0,0 mm 0,0 km/h (0 Bft) SO 135 8,4 C 0,0 km/h (0 Bft)
14.05.2015 21:30 11,9 C 11,7 C 79 % 1010,3 hPa 0,0 mm 0,0 km/h (0 Bft) SO 135 8,4 C 0,0 km/h (0 Bft)
14.05.2015 21:35 11,7 C 11,5 C 82 % 1010,2 hPa 0,0 mm 0,0 km/h (0 Bft) SO 135 8,7 C 0,0 km/h (0 Bft)
14.05.2015 21:40 11,4 C 11,2 C 82 % 1010,2 hPa 0,0 mm 0,0 km/h (0 Bft) SW 225 8,4 C 0,0 km/h (0 Bft)
14.05.2015 21:45 11,5 C 11,3 C 82 % 1010,2 hPa 0,0 mm 1,3 km/h (1 Bft) S 180 8,5 C 3,4 km/h (1 Bft)
14.05.2015 21:50 11,3 C 11,1 C 83 % 1010,2 hPa 0,0 mm 1,6 km/h (1 Bft) O-NO 67 8,5 C 0,0 km/h (0 Bft)
14.05.2015 21:55 11,1 C 11,0 C 83 % 1010,2 hPa 0,0 mm 0,5 km/h (0 Bft) O-NO 67 8,3 C 0,0 km/h (0 Bft)
14.05.2015 22:00 11,2 C 11,0 C 83 % 1010,2 hPa 0,0 mm 0,0 km/h (0 Bft) O-SO 112 8,4 C 0,0 km/h (0 Bft)
14.05.2015 22:05 11,1 C 10,9 C 81 % 1010,2 hPa 0,0 mm 0,0 km/h (0 Bft) SW 225 8,0 C 2,8 km/h (1 Bft)
14.05.2015 22:10 11,0 C 11,0 C 82 % 1010,2 hPa 0,0 mm 0,3 km/h (0 Bft) S 180 8,0 C 0,0 km/h (0 Bft)
14.05.2015 22:15 11,1 C 11,1 C 82 % 1010,4 hPa 0,0 mm 0,3 km/h (0 Bft) S 180 8,1 C 4,1 km/h (1 Bft)
14.05.2015 22:20 11,1 C 11,1 C 83 % 1010,4 hPa 0,0 mm 0,3 km/h (0 Bft) S 180 8,3 C 0,0 km/h (0 Bft)
14.05.2015 22:25 11,1 C 11,1 C 83 % 1010,4 hPa 0,0 mm 0,3 km/h (0 Bft) S 180 8,3 C 0,0 km/h (0 Bft)
14.05.2015 22:30 11,0 C 10,9 C 85 % 1010,4 hPa 0,0 mm 0,0 km/h (0 Bft) S 180 8,6 C 0,0 km/h (0 Bft)
14.05.2015 22:35 11,0 C 10,8 C 85 % 1010,7 hPa 0,0 mm 0,0 km/h (0 Bft) S 180 8,6 C 0,0 km/h (0 Bft)
14.05.2015 22:40 11,1 C 11,0 C 83 % 1010,7 hPa 0,0 mm 0,0 km/h (0 Bft) S 180 8,3 C 0,0 km/h (0 Bft)
14.05.2015 22:45 11,1 C 11,0 C 83 % 1010,7 hPa 0,0 mm 0,0 km/h (0 Bft) S 180 8,3 C 0,0 km/h (0 Bft)
14.05.2015 22:50 11,1 C 11,0 C 83 % 1010,7 hPa 0,0 mm 0,0 km/h (0 Bft) S 180 8,3 C 0,0 km/h (0 Bft)
14.05.2015 22:55 11,1 C 11,0 C 83 % 1010,6 hPa 0,0 mm 0,0 km/h (0 Bft) S 180 8,3 C 0,0 km/h (0 Bft)
14.05.2015 23:00 11,1 C 11,2 C 83 % 1010,6 hPa 0,0 mm 0,3 km/h (0 Bft) SO 135 8,3 C 0,0 km/h (0 Bft)
14.05.2015 23:05 11,3 C 11,2 C 83 % 1010,6 hPa 0,0 mm 0,3 km/h (0 Bft) SO 135 8,5 C 0,0 km/h (0 Bft)
14.05.2015 23:10 11,4 C 11,2 C 86 % 1010,6 hPa 0,0 mm 0,0 km/h (0 Bft) N-NW 337 9,1 C 0,0 km/h (0 Bft)
14.05.2015 23:15 11,3 C 11,2 C 85 % 1010,1 hPa 0,0 mm 0,0 km/h (0 Bft) N-NW 337 8,9 C 0,0 km/h (0 Bft)
14.05.2015 23:20 11,1 C 11,0 C 85 % 1010,1 hPa 0,0 mm 0,0 km/h (0 Bft) N-NW 337 8,7 C 0,0 km/h (0 Bft)
14.05.2015 23:25 11,0 C 10,9 C 85 % 1010,1 hPa 0,0 mm 0,0 km/h (0 Bft) N-NW 337 8,6 C 0,0 km/h (0 Bft)
14.05.2015 23:30 11,1 C 10,9 C 85 % 1010,1 hPa 0,0 mm 0,0 km/h (0 Bft) SW 225 8,7 C 0,0 km/h (0 Bft)
14.05.2015 23:35 11,0 C 10,8 C 85 % 1009,9 hPa 0,0 mm 0,0 km/h (0 Bft) N-NW 337 8,6 C 0,0 km/h (0 Bft)
14.05.2015 23:40 11,0 C 10,8 C 85 % 1009,9 hPa 0,0 mm 0,0 km/h (0 Bft) NW 315 8,6 C 0,0 km/h (0 Bft)
14.05.2015 23:45 10,9 C 10,7 C 86 % 1009,9 hPa 0,0 mm 0,0 km/h (0 Bft) NW 315 8,7 C 0,0 km/h (0 Bft)
14.05.2015 23:50 10,7 C 10,5 C 86 % 1009,9 hPa 0,0 mm 0,0 km/h (0 Bft) NW 315 8,5 C 0,0 km/h (0 Bft)
14.05.2015 23:55 10,8 C 10,6 C 86 % 1009,8 hPa 0,0 mm 0,0 km/h (0 Bft) W 270 8,6 C 0,0 km/h (0 Bft)
_ Min-Zeit 23:50 23:50 00:25 23:55 - 23:55 - - 00:25 23:55
Minimum _ 10,7 C 10,5 C 50 % 1009,8 hPa - 0,0 km/h (0 Bft) - - 7,3 C 0,0 km/h (0 Bft)
_ Max-Zeit 00:05 11:10 07:55 12:10 06:40 03:45 - - 11:05 03:50
Maximum _ 18,4 C 20,9 C 87 % 1013,8 hPa 1,4 mm 17,1 km/h
W-SW (3 Bft)
- - 11,7 C 39,6 km/h
W (6 Bft)
Durchschnitt _ 14,1 C 14,9 C 75 % 1012,1 hPa #6,2 mm 5,0 km/h (1 Bft) W-SW - 9,7 C 6,9 km/h (2 Bft)